Погода в Большом Селе

Россия / Ярославская область     57°43′15″N   38°56′29″E
темп.,
°C
ветер,
м/с
пор.,
м/с
влажн.,
%
обл.,
%
осадки,
мм/ч
давл.,
гПа
погр.,
м
11 мая, вт
вт1100:00+5св22774 0.0 102911
03:00+4всв117817 0.0 103010
06:00+6в137448 0.0 103096
09:00+13всв245367 0.0 1030494
12:00+16в344252 0.0 1029959
15:00+18в34425 0.0 10281051
18:00+17в25575 0.0 1027440
21:00+11вюв22795 0.0 102829
12 мая, ср
ср1200:00+9вюв22805 0.0 102819
03:00+8вюв22863 0.0 102815
06:00+11в13823 0.0 102883
09:00+17в246872 0.0 1028432
12:00+21в455882 0.0 1026942
15:00+23в57521 0.0 10241464
18:00+21всв511635 0.3 10221298
21:00+15вюв4148563 1.6 1023553
13 мая, чт
чт1300:00+14вюв4128867 0.0 1023546
03:00+13вюв399690 0.0 1023374
06:00+13вюв389263 0.0 1022394
09:00+16юв478084 0.1 1022820
12:00+19вюв466788 0.1 10201178
15:00+20вюв596823 0.9 10171445
18:00+17юв6128196 1.6 10151268
21:00+14ююв499693 2.4 1016540
14 мая, пт
пт1400:00+11ю27975 0.2 1016212
03:00+10ююв299899 0.2 1017247
06:00+11ю279619 0.0 1018262
09:00+15ююз35745 0.0 1018772
12:00+18ю354996 0.0 10181336
15:00+19ю355057 0.0 10181227
18:00+20юв246689 0.0 1016924
21:00+15юв2396100 2.6 101577
15 мая, сб
сб1500:00+13вюв269857 1.4 1014207
03:00+13вюв2898100 1.4 1013213
06:00+15юв289793 0.0 1012281
09:00+16ююв41194100 0.6 1012398
12:00+18ююв2689100 1.3 1010141
15:00+24ююз475171 1.6 10091739
18:00+18ю41086100 2.3 1008366
21:00+14ю4139280 6.1 1008549